Regional Weather Roundup
Issued by NWS

Home | Current Version | Previous Version | Text Only | Print | Product List | Glossary On
Versions: 1 2 3 4 5 6 7 8 9 10 11 12 13 14 15 16 17 18 19 20 21 22 23 24 25 26 27 28 29 30 31 32 33 34 35 36 37 38 39 40 41 42 43 44 45 46 47 48 49 50
859
ASUS43 KMPX 281410
RWRMN
WEATHER ROUNDUP FOR MINNESOTA
NATIONAL WEATHER SERVICE TWIN CITIES/CHANHASSEN MN
900 AM CDT TUE MAR 28 2017


NOTE: "FAIR" INDICATES FEW OR NO CLOUDS BELOW 12,000 FEET WITH NO
SIGNIFICANT WEATHER AND/OR OBSTRUCTIONS TO VISIBILITY. N/A MEANS
CURRENT SKY AND/OR WEATHER CONDITIONS ARE NOT AVAILABLE.

MNZ060>063-068>070-281500-
   Twin Cities Metro

CITY           SKY/WX    TMP DP  RH WIND       PRES   REMARKS
TWIN CITIES    SUNNY     42  36  79 CALM      30.13R
ST PAUL        SUNNY     39  38  96 CALM      30.15R
CRYSTAL        SUNNY     41  32  70 CALM      30.13R
BLAINE         SUNNY     39  37  93 CALM      30.13R
LAKEVILLE      SUNNY     39  39 100 CALM      30.13R
EDEN PRAIRIE   SUNNY     43  37  79 CALM      30.12R
SOUTH ST PAUL  SUNNY     40  37  89 CALM      30.13R
LAKE ELMO      FAIR      37  37 100 CALM      30.14R
$$
MNZ001>005-007-008-013>017-022>024-027-028-281500-
   Northwest Minnesota

CITY           SKY/WX    TMP DP  RH WIND       PRES   REMARKS
BEMIDJI        CLOUDY    34  31  87 N3        30.13R
HALLOCK        SUNNY     34  30  86 N5        30.19R WCI  30
ROSEAU         SUNNY     36  30  80 NE3       30.18R
WARROAD        SUNNY     34  28  80 N6        30.18R WCI  29
THIEF RVR FALL MOSUNNY  N/A N/A N/A NE5       30.17R
CROOKSTON      CLOUDY    34  34 100 NW6       30.18R FOG     WCI  29
FOSSTON        PTSUNNY   36  34  93 CALM      30.15R
DETROIT LAKES  SUNNY     36  34  93 CALM      30.14R
MOORHEAD       FOG       30  28  93 N3        30.16S VSB<1/4
PARK RAPIDS    SUNNY     38  29  70 CALM      30.12R
MAHNOMEN       FAIR      35  32  91 NE5       30.13R WCI  30
$$
MNZ006-009>011-018-025>026-281500-
   North Central Minnesota

CITY           SKY/WX    TMP DP  RH WIND       PRES   REMARKS
BAUDETTE       SUNNY     39  30  70 NE5       30.15R
FLAG ISLAND    CLOUDY    32  25  74 N6        30.18R WCI  26
INTL FALLS     CLOUDY    38  28  67 N6        30.15R
WASKISH        SUNNY     39  30  70 E3        30.15R
BIG FORK       SUNNY     37  28  70 CALM      30.13R
LONGVILLE      PTSUNNY   34  30  86 CALM      30.12R
GRAND RAPIDS   MOSUNNY   36  33  89 CALM      30.14R
CRANE LAKE     MOSUNNY   32  28  86 CALM      30.15S
ORR            PTSUNNY   36  27  69 CALM      30.10S
COOK           PTSUNNY   34  28  80 CALM      30.13R
WALKER         PTSUNNY   33  29  83 W3        30.13R
$$
MNZ012-019>021-037-281500-
   Northeast Minnesota

CITY           SKY/WX    TMP DP  RH WIND       PRES   REMARKS
DULUTH         MOSUNNY   41  35  79 CALM      30.12R
ELY            SUNNY     34  28  80 CALM      30.13R
HIBBING        MOSUNNY   32  30  92 CALM      30.13R
EVELETH        SUNNY     37  32  81 CALM      30.13R
DULUTH HARBOR  SUNNY     34  32  93 CALM      30.15S
TWO HARBORS    SUNNY     43  36  75 CALM      30.11R
SILVER BAY     MOSUNNY   37  34  87 CALM      30.11R
GRAND MARAIS     N/A     38  33  82 CALM      30.13R
G MARAIS ARPRT SUNNY     39  25  56 N5        30.10S
$$
MNZ029>031-032-039>041-046>048-054>057-064-281500-
   West Central Minnesota

CITY           SKY/WX    TMP DP  RH WIND       PRES   REMARKS
FERGUS FALLS   SUNNY     36  36 100 CALM      30.17R
WHEATON        FOG       30  30 100 NW5       30.17R VSB<1/4 WCI  25
MORRIS         MOSUNNY   39  36  87 NW3       30.12R
ALEXANDRIA     SUNNY     43  37  79 CALM      30.13R
ELBOW LAKE     FAIR      37  35  92 CALM      30.13S
WADENA         SUNNY     34  30  86 CALM      30.12R
GLENWOOD       SUNNY     43  37  81 CALM      30.13R
APPLETON       SUNNY     41  36  81 CALM      30.13R
BENSON         SUNNY     43  36  75 CALM      30.14R
ORTONVILLE     SUNNY     37  34  87 CALM      30.13R
MADISON        SUNNY     41  41 100 CALM      30.12S
WILLMAR        FAIR      45  39  81 E5        30.13S
$$
MNZ033>034-036-042>043-049>051-058-059-281500-
   Central Minnesota

CITY           SKY/WX    TMP DP  RH WIND       PRES   REMARKS
ST CLOUD       SUNNY     39  36  89 CALM      30.13R
SAUK CENTRE    FAIR      35  33  93 CALM      30.14R
PAYNESVILLE      N/A     37  37 100 CALM      30.14R
AITKIN         SUNNY     37  32  81 CALM      30.12R
PINE RIVER     SUNNY     36  28  75 CALM      30.15R
BRAINERD       SUNNY     37  33  85 CALM      30.13R
STAPLES        SUNNY     34  32  93 CALM      30.13R
LONG PRAIRIE   FAIR      36  32  87 CALM      30.14R
LITTLE FALLS   SUNNY     36  32  87 CALM      30.13S
LITCHFIELD     SUNNY     43  37  81 CALM      30.14R
BUFFALO        SUNNY     40  33  77 CALM      30.15R
MAPLE LAKE     SUNNY     40  37  90 N3        30.15R
HUTCHINSON     SUNNY     44  38  78 CALM      30.15R
$$
MNZ037-044-045-052-053-281500-
   East Central Minnesota

CITY           SKY/WX    TMP DP  RH WIND       PRES   REMARKS
PRINCETON      SUNNY     39  37  93 CALM      30.14R
MORA           SUNNY     36  32  87 CALM      30.16R
CAMBRIDGE      SUNNY     39  34  81 CALM      30.12R
RUSH CITY      SUNNY     37  32  81 N3        30.14R
MOOSE LAKE     SUNNY     34  32  93 CALM      30.13R
CLOQUET        SUNNY     39  34  81 CALM      30.13R
MCGREGOR       SUNNY     36  34  93 CALM      30.14R
$$
MNZ071>073-080-081-089-090-097-098-281500-
   Southwest Minnesota

CITY           SKY/WX    TMP DP  RH WIND       PRES   REMARKS
MONTEVIDEO     MOSUNNY   45  37  76 CALM      30.13S
GRANITE FALLS  SUNNY     40  37  88 CALM      30.13S
CANBY          SUNNY     41  38  86 CALM      30.13R
MARSHALL       SUNNY     41  37  86 NW6       30.12R
REDWOOD FALLS  PTSUNNY   43  34  70 NE5       30.12R
OLIVIA         SUNNY     43  36  75 E5        30.12S
PIPESTONE      SUNNY     43  37  81 CALM      30.10R
WINDOM         SUNNY     45  39  81 N3        30.11R
WORTHINGTON    SUNNY     42  38  85 N6        30.11R
JACKSON        SUNNY     39  36  87 CALM      30.12R
TRACY          SUNNY     44  40  86 NW6       30.11S
SLAYTON        SUNNY     40  38  93 CALM      30.11S
$$
MNZ065>067-074>077-082>085-091>093-281500-
   South Central Minnesota

CITY           SKY/WX    TMP DP  RH WIND       PRES   REMARKS
MANKATO        SUNNY     40  38  93 CALM      30.13R
NEW ULM        CLOUDY    43  37  81 CALM      30.12R
ST JAMES       SUNNY     39  37  93 CALM      30.13R
FAIRMONT       SUNNY     40  38  93 CALM      30.13R
GLENCOE        SUNNY     42  39  88 CALM      30.13R
FARIBAULT      SUNNY     39  39 100 CALM      30.13R
OWATONNA       SUNNY     39  37  93 CALM      30.12R
WASECA         SUNNY     39  36  87 CALM      30.13R
ALBERT LEA     SUNNY     36  36 100 CALM      30.12R
$$
MNZ078>079-086>088-094>096-281500-
   Southeast Minnesota

CITY           SKY/WX    TMP DP  RH WIND       PRES   REMARKS
ROCHESTER      SUNNY     39  38  96 E5        30.12R FOG
RED WING       FOG       34  34 100 SE3       30.14R VSB<1/4
STANTON        SUNNY     37  34  89 CALM      30.12R
DODGE CENTER   SUNNY     37  37 100 CALM      30.12R FOG
WINONA         FOG       32  32 100 CALM      30.15S VSB<1/4
AUSTIN         SUNNY     37  37 100 CALM      30.11R
PRESTON        SUNNY     39  36  89 NE6       30.12S
$$
ABBREVIATIONS USED IN REMARKS
   TC - TEMPERATURES IN CELSIUS
  WCI - WIND CHILL INDEX
   HX - HEAT INDEX
  VSB - VISIBILITY
$$




USA.gov is the U.S. government's official web portal to all federal, state and local government web resources and services.